Retour au catalogue

IRIDIUM 33 DEB

ActifPO
NORAD 34765·DEBRIS·🇺🇸 United States

Lancé Sep 14, 1997 depuis Baikonur Cosmodrome

Loading…

Prochains Passages (prochaines 24 heures)

TLE

FraisSource: Space-Track

Époque: Sep 14, 2026, 11:59 UTC

1 34765U 97051LJ  26257.49979128  .00000716  00000-0  21590-3 0  9992
2 34765  86.3330 274.3703 0017450  36.9169 115.6710 14.41099063915842

Suivez IRIDIUM 33 DEB en temps réel avec AllMySat

Download on the App Store